Location: Helsinki
(60.1699°N, 24.9384°E)
Time: 00:01:27
(UTC+02:00)

Altair - Pass Details

Date: 05 November 2020
Orbit: 1502 x 1682 km, 47.2° (Epoch: 25 November)

Event Time Altitude Azimuth Distance (km) Brightness Sun altitude
Rises 04:38:15 0° 230° (SW) 4,639 - -24.2°
Reaches altitude 10° 04:41:37 10° 221° (SW) 3,670 - -23.8°
Exits shadow 04:44:00 18° 211° (SSW) 3,065 8.7 -23.5°
Maximum altitude 04:49:29 33° 162° (SSE) 2,362 8.5 -22.9°
Drops below altitude 10° 04:57:35 10° 103° (ESE) 3,774 10.5 -21.9°
Sets 05:01:05 0° 95° (E) 4,787 11.6 -21.4°
